Showing default

M1, 43779

Orbit data source: Space-Track

M1, 43779 is a payload satellite owned by RAAF (AU) in SSO that was launched on Mon, 03 Dec 2018 UTC via an FALCON 9 launch vehicle from the Air Force Western Test Range (AFWTR). Payload-class satellites include a variety of spacecraft equipped with specific instruments for various scientific and technological missions. These include communications satellites like Starlink; space stations such as the ISS; scientific satellites like the Hubble; Earth observation satellites from companies like Planet Labs, Umbra, and HawkEye 360; GPS; miniature CubeSats for education and research; and military/defense satellites.

Loading next visibility...
Identifier
43779, 2018-099X
Orbit
SSO
Country
Flag of AUAU / AUS
Related business
Manufacturer
U. NSW
Mission
Non-operational Defense Imaging
Bus & Motor
CUBESAT 3U, Unknown motor
Mass
5 kg wet, 5 kg dry
Launch date (UTC)
2018-12-03 (7 years ago)
Launch vehicle
FALCON 9
Launch site
Air Force Western Test Range (AFWTR)
Object type
Payload
Rocket body
Debris
Shape & HBR
Box + 1 Pan, 0.1 m
Radar Cross Section
0.035 m², Small (<0.1 m²)

Expand to show TLE details & history
Last TLE update: 10 hours ago

TLE from 10 hours ago
0 M1
1 43779U 18099X   25295.37387756  .00003646  00000-0  25432-3 0  9994
2 43779  97.4748 340.8378 0014959 123.7824 236.4830 15.05911580376321
Epoch: 2025-10-22T08:58Z
TLE epoch observation values (Epoch: 2025-10-22T08:58:23.021Z)
Latitude
-0.00004°
Longitude
175.19348°
Altitude
557.512 km
Speed
7.58 km/s
True Right ascension
22h 43m 21s
True Declination
0° 00' 00"
Sunlit
Object was in full shadow at epoch
Visualization orbit readout
Latitude
Unknown
Longitude
Unknown
Altitude
Unknown
Speed
Unknown
Apparent Right ascension
Unknown
Apparent Declination
Unknown
Sunlit
N/A
Visualization observer readout
Local Sidereal Time
13:53:15
Azimuth
Unknown
Elevation
Unknown
Doppler factor
Unknown
Orbital elements
Apogee altitude
556.054 km
Perigee altitude
535.339 km
Semi-major axis
6,923.833 km
Eccentricity
0.0015
Inclination
97.4748°
RAAN
340.8378°
Arg. of periapsis
123.7824°
True anomaly
236.34023°
Mean anomaly
236.483°
Eccentric anomaly
236.4116°
Mean motion
3.76724 °/min
Orbital period
95.56 mins
BSTAR
0.00025432
Loading maneuver chart data...
Computing Atmospheric mass density...
Loading historical data...
Loading historical data...
Loading historical data...
Loading historical data...
Loading historical data...
Loading historical data...
Loading historical data...

Documentation

Showing up to 5 results
|